[[{"header":{"parameterUnit":"m.s-1","parameterCategory":1,"la1":30.2991,"la2":30.254,"lo1":-89.0895,"lo2":-89.0444,"dy":0.0017,"dx":0.0017,"nx":28,"ny":28,"refTime":"2023-09-26T09:00:00:Z","depth":0,"parameterNumber":2,"parameterNumberName":"U-component_of_WINDS"},"data":[0,0,0,0,0,0,0,0,0,0,0,0,0,0,0,0,0,0,0,0,0,0,0,0,0,0,0,0,0,0,0,0,0,0,0,0,0,0,0,0,0,0,0,0,0,0,0,0,0,0,0,0,0,0,0,0,0,0,-4.6354,-4.6354,0,-4.6319,-4.6319,-4.6319,-4.6176,-4.6173,-4.6169,-4.6166,-4.6133,-4.6135,-4.6138,0,0,0,0,0,0,0,0,0,0,0,0,0,-4.6302,-4.6303,-4.6354,-4.6354,-4.6353,-4.6319,-4.6319,-4.6318,-4.6176,-4.6172,-4.6168,-4.6165,-4.6133,-4.6135,-4.6138,0,0,0,0,0,0,0,0,0,0,0,0,0,-4.6302,-4.6304,-4.6354,-4.6278,-4.6271,-4.632,-4.6319,-4.6318,-4.6177,-4.6172,-4.6167,-4.6163,-4.6132,-4.6135,-4.6138,-4.6258,0,0,-4.6148,-4.615,0,0,0,0,0,0,0,0,-4.6302,-4.6304,-4.629,-4.6284,-4.6276,-4.6247,-4.6288,-4.6298,-4.6179,-4.6213,-4.6166,-4.616,-4.6175,-4.6175,-4.6179,-4.6256,-4.6255,-4.6149,-4.6151,-4.6152,-4.6153,0,0,0,0,0,0,0,-4.6302,-4.6304,-4.634,-4.629,-4.6281,-4.6247,-4.6242,-4.6289,-4.6223,-4.621,-4.6199,-4.6197,-4.617,-4.6176,-4.6177,-4.6254,-4.6149,-4.6151,-4.6154,-4.6155,-4.6431,-4.6436,0,0,0,0,0,0,-4.6312,-4.6305,-4.6342,-4.6339,-4.6277,-4.6252,-4.6246,-4.6261,-4.6222,-4.6211,-4.6201,-4.619,-4.6173,-4.6174,-4.6176,-4.6315,-4.6152,-4.6155,-4.6157,-4.6425,-4.6432,-4.6438,0,0,0,0,0,0,-4.6312,-4.6317,-4.6343,-4.632,-4.632,-4.6258,-4.6277,-4.6263,-4.6269,-4.6215,-4.6203,-4.6219,-4.6169,-4.6171,-4.6239,-4.6312,-4.6157,-4.616,-4.6419,-4.6427,-4.6435,-4.6594,0,0,0,0,0,0,-4.6311,-4.6317,-4.6361,-4.6322,-4.6322,-4.6406,-4.6281,-4.6266,-4.6274,-4.626,-4.6229,-4.6219,-4.6165,-4.6235,-4.6242,-4.6313,-4.6162,-4.6412,-4.6423,-4.6432,-4.6582,-4.6606,-4.6627,0,0,0,0,0,-4.6309,-4.6407,-4.6364,-4.6369,-4.6375,-4.6411,-4.6411,-4.6347,-4.6281,-4.6325,-4.6291,-4.622,-4.6302,-4.6243,-4.625,-4.6323,-4.6407,-4.642,-4.6431,-4.6571,-4.6601,-4.6626,0,0,0,0,0,0,-4.6458,-4.6401,-4.6352,-4.644,-4.6431,-4.6386,-4.644,-4.638,-4.639,-4.6376,-4.6297,-4.6291,-4.6371,-4.6354,-4.6288,-4.6438,-4.6343,-4.6357,-4.6447,-4.6475,-4.6497,-4.65,-4.6165,0,0,0,0,0,-4.6501,-4.6533,-4.6482,-4.6564,-4.6562,-4.6503,-4.6515,-4.6467,-4.6455,-4.645,-4.6421,-4.6413,-4.6437,-4.6455,-4.6474,-4.6578,-4.6571,-4.6632,-4.6655,-4.6674,-4.6687,-4.6744,-4.6771,-4.6477,-4.6477,-4.6477,0,0,-4.659,-4.6563,-4.6588,-4.6594,-4.6581,-4.6618,-4.65,-4.6543,-4.657,-4.6457,-4.652,-4.6498,-4.6484,-4.6572,-4.6609,-4.656,-4.6767,-4.6689,-4.6705,-4.6708,-4.6759,-4.6787,-4.6812,-4.6485,-4.6484,-4.6483,0,0,-4.6771,-4.6753,-4.6821,-4.6811,-4.6793,-4.6753,-4.677,-4.6734,-4.6716,-4.6777,-4.6694,-4.6725,-4.6768,-4.6762,-4.6764,-4.6946,-4.6882,-4.6955,-4.7074,-4.7129,-4.7153,-4.7173,-4.724,-4.7264,-4.6968,-4.6968,-4.6969,0,-4.6884,-4.6935,-4.6863,-4.6913,-4.6919,-4.6818,-4.6887,-4.6881,-4.6871,-4.6878,-4.6823,-4.6876,-4.6859,-4.6945,-4.699,-4.6994,-4.7013,-4.6958,-4.7155,-4.7174,-4.7192,-4.7255,-4.728,-4.6977,-4.6976,-4.6975,-4.6975,0,-4.7076,-4.7113,-4.717,-4.7163,-4.7175,-4.7235,-4.7174,-4.7195,-4.7146,-4.7112,-4.7178,-4.7154,-4.7168,-4.7184,-4.7136,-4.7264,-4.7235,-4.7169,-4.7071,-4.7231,-4.7289,-4.7312,-4.6991,-4.6987,-4.6985,-4.6982,0,0,-4.7349,-4.7303,-4.7326,-4.7322,-4.7296,-4.7324,-4.738,-4.7392,-4.7413,-4.741,-4.7456,-4.7496,-4.7435,-4.7438,-4.7389,-4.7438,-4.7586,-4.7366,-4.7364,-4.7409,-4.7728,-4.778,-4.7808,-4.7543,-4.7547,-4.7551,-4.773,0,-4.7524,-4.7615,-4.7553,-4.7655,-4.769,-4.7595,-4.7644,-4.7635,-4.7605,-4.7631,-4.7599,-4.7629,-4.7545,-4.7547,-4.7591,-4.7559,-4.765,-4.7545,-4.7587,-4.759,-4.7595,-4.7838,-4.7892,-4.8062,-4.7752,-4.7756,-4.7759,0,-4.7739,-4.7746,-4.7852,-4.7821,-4.7833,-4.7878,-4.7886,-4.7911,-4.7899,-4.7874,-4.788,-4.7819,-4.7873,-4.7777,-4.7852,-4.7782,-4.7796,-4.7783,-4.7788,-4.7791,-4.7685,-4.7849,-4.8114,-4.8141,-4.7793,-4.779,-4.7788,0,-4.793,-4.7966,-4.8034,-4.8034,-4.7999,-4.8033,-4.802,-4.8003,-4.8016,-4.8023,-4.8031,-4.8045,-4.8053,-4.8067,-4.8012,-4.7947,-4.8095,-4.7994,-4.8078,-4.808,-4.8114,-4.8113,-4.8388,-4.8121,-4.8121,-4.812,-4.812,0,-4.8132,-4.8201,-4.812,-4.8162,-4.8238,-4.8167,-4.8244,-4.8221,-4.8207,-4.8245,-4.8163,-4.8201,-4.8125,-4.8156,-4.8114,-4.8184,-4.8187,-4.817,-4.8159,-4.8179,-4.8181,-4.8187,-4.8175,-4.8127,-4.8126,-4.8124,-4.8123,0,-4.8359,-4.8307,-4.8375,-4.8337,-4.8329,-4.8387,-4.8354,-4.8393,-4.8358,-4.8407,-4.8415,-4.8361,-4.8393,-4.834,-4.8365,-4.8336,-4.8434,-4.8403,-4.8439,-4.843,-4.8518,-4.8511,-4.8807,-4.8843,-4.8553,-4.8556,-4.8558,0,-4.8492,-4.8542,-4.851,-4.8529,-4.8521,-4.8553,-4.8565,-4.8498,-4.8515,-4.8506,-4.8547,-4.8571,-4.8587,-4.8643,-4.8607,-4.8627,-4.8597,-4.8699,-4.8599,-4.8618,-4.8601,-4.8599,-4.8605,-4.872,-4.8724,-4.8727,-4.8729,0,-4.8734,-4.8706,-4.8726,-4.874,-4.8757,-4.8763,-4.8764,-4.8785,-4.8714,-4.8738,-4.8769,-4.8782,-4.8808,-4.8834,-4.8845,-4.8833,-4.8771,-4.8761,-4.8781,-4.8803,-4.8822,-4.8815,-4.8496,-4.8754,-4.8752,-4.875,-4.8748,-4.8747,-4.8918,-4.896,-4.8944,-4.8971,-4.8965,-4.8968,-4.9003,-4.8973,-4.8998,-4.9013,-4.8972,-4.9014,-4.9003,-4.9011,-4.9007,-4.9039,-4.8994,-4.9024,-4.9032,-4.9041,-4.9056,-4.8816,-4.9041,-4.904,-4.9039,-4.9039,-4.9038,0,-4.9158,-4.9143,-4.9168,-4.9173,-4.9194,-4.9132,-4.9131,-4.9154,-4.9191,-4.9185,-4.9203,-4.9241,-4.9266,-4.9234,-4.9254,-4.9287,-4.9259,-4.9295,-4.9292,-4.9291,-4.9094,-4.9074,-4.9317,-4.9317,-4.9317,-4.9317,-4.9317,-4.9317,-4.9285,-4.9353,-4.9324,-4.9389,-4.9374,-4.9414,-4.9419,-4.9422,-4.9418,-4.9463,-4.9484,-4.9462,-4.9446,-4.9465,-4.9487,-4.9476,-4.9489,-4.9535,-4.9515,-4.9332,-4.9305,-4.9279,-4.926,-4.9538,-4.9538,-4.971,-4.9711,-4.9713]},{"header":{"parameterUnit":"m.s-1","parameterCategory":1,"la1":30.2991,"la2":30.254,"lo1":-89.0895,"lo2":-89.0444,"dy":0.0017,"dx":0.0017,"nx":28,"ny":28,"refTime":"2023-09-26T09:00:00:Z","depth":0,"parameterNumber":3,"parameterNumberName":"V-component_of_WINDS"},"data":[0,0,0,0,0,0,0,0,0,0,0,0,0,0,0,0,0,0,0,0,0,0,0,0,0,0,0,0,0,0,0,0,0,0,0,0,0,0,0,0,0,0,0,0,0,0,0,0,0,0,0,0,0,0,0,0,0,0,0.35,0.35,0,0.3476,0.3475,0.3475,0.3472,0.3472,0.3473,0.3473,0.3446,0.3445,0.3444,0,0,0,0,0,0,0,0,0,0,0,0,0,0.3541,0.3541,0.35,0.3499,0.3499,0.3476,0.3475,0.3475,0.3472,0.3472,0.3473,0.3473,0.3446,0.3445,0.3444,0,0,0,0,0,0,0,0,0,0,0,0,0,0.3521,0.354,0.35,0.3495,0.3494,0.3476,0.3475,0.3475,0.3472,0.3472,0.3473,0.3473,0.3446,0.3445,0.3444,0.3428,0,0,0.3439,0.3439,0,0,0,0,0,0,0,0,0.3522,0.3519,0.3496,0.3495,0.3494,0.3477,0.348,0.3459,0.3472,0.348,0.3473,0.3473,0.3456,0.3454,0.3448,0.3426,0.3425,0.3439,0.3438,0.3438,0.3437,0,0,0,0,0,0,0,0.3523,0.352,0.349,0.3496,0.3495,0.3493,0.3491,0.3476,0.3466,0.348,0.3479,0.3477,0.3455,0.345,0.3448,0.3425,0.3439,0.3438,0.3437,0.3437,0.3388,0.3387,0,0,0,0,0,0,0.3526,0.3522,0.3491,0.3489,0.351,0.3492,0.3489,0.3482,0.3466,0.3464,0.3476,0.3477,0.3452,0.3449,0.3447,0.3426,0.3438,0.3436,0.3436,0.3388,0.3388,0.3387,0,0,0,0,0,0,0.3527,0.3523,0.3492,0.3505,0.3501,0.3491,0.3483,0.3482,0.3476,0.3464,0.3462,0.3472,0.3452,0.3449,0.3432,0.3425,0.3436,0.3434,0.3389,0.3388,0.3388,0.3385,0,0,0,0,0,0,0.3528,0.3524,0.3518,0.3505,0.3501,0.3479,0.3483,0.3481,0.3474,0.3474,0.346,0.3458,0.3452,0.3435,0.3431,0.3423,0.3433,0.3389,0.3389,0.3388,0.3386,0.3385,0.3384,0,0,0,0,0,0.353,0.3518,0.3518,0.3514,0.3493,0.3478,0.3475,0.347,0.3473,0.3467,0.3459,0.3458,0.3427,0.3433,0.3429,0.3421,0.339,0.3389,0.3388,0.3387,0.3385,0.3384,0,0,0,0,0,0,0.3529,0.3516,0.3516,0.35,0.349,0.3478,0.347,0.3469,0.3457,0.3458,0.3451,0.3447,0.3431,0.3425,0.3432,0.3404,0.3409,0.3407,0.3409,0.3407,0.3406,0.3408,0.3432,0,0,0,0,0,0.3527,0.3517,0.3506,0.3493,0.3488,0.348,0.3473,0.347,0.3459,0.3455,0.3446,0.3435,0.3423,0.3415,0.3403,0.3386,0.3382,0.3378,0.3377,0.3376,0.3374,0.3363,0.3361,0.3384,0.3384,0.3384,0,0,0.3523,0.3515,0.3508,0.3492,0.3485,0.3473,0.3476,0.3464,0.3455,0.3453,0.3437,0.343,0.3418,0.3401,0.3393,0.3394,0.3367,0.3375,0.3374,0.3372,0.3362,0.336,0.3358,0.3383,0.3384,0.3384,0,0,0.3509,0.3502,0.349,0.3483,0.3471,0.3466,0.3463,0.3451,0.3446,0.3431,0.3429,0.3418,0.3397,0.3388,0.3381,0.3364,0.3362,0.336,0.3354,0.3343,0.3341,0.334,0.3333,0.3331,0.3359,0.3359,0.3359,0,0.3505,0.3488,0.3484,0.3472,0.3465,0.3463,0.345,0.3443,0.3428,0.3422,0.3425,0.3399,0.339,0.3371,0.3367,0.3361,0.3357,0.3361,0.3342,0.3341,0.3339,0.3332,0.333,0.3359,0.3359,0.3359,0.3359,0,0.3483,0.3472,0.3463,0.345,0.3441,0.3429,0.3422,0.3415,0.3412,0.3406,0.339,0.338,0.3366,0.3361,0.3359,0.3341,0.3342,0.3344,0.3348,0.3337,0.333,0.3327,0.3358,0.3358,0.3358,0.3358,0,0,0.3467,0.3452,0.3449,0.3442,0.343,0.342,0.3408,0.3395,0.3388,0.3378,0.3366,0.3349,0.335,0.3342,0.3338,0.333,0.3316,0.3332,0.3331,0.3328,0.3295,0.3293,0.329,0.3315,0.3315,0.3314,0.3296,0,0.3451,0.3429,0.3425,0.3406,0.3395,0.3393,0.3382,0.3373,0.3367,0.3356,0.335,0.3338,0.3341,0.3336,0.3327,0.3319,0.3309,0.3321,0.3303,0.3303,0.3305,0.3287,0.3285,0.3267,0.3293,0.3293,0.3292,0,0.3429,0.3419,0.3398,0.3387,0.3382,0.3373,0.336,0.335,0.334,0.3336,0.3327,0.3325,0.3311,0.3317,0.3297,0.3305,0.3298,0.3293,0.3293,0.3289,0.3296,0.3282,0.3262,0.3259,0.3289,0.3289,0.3289,0,0.3418,0.3399,0.3384,0.3379,0.3366,0.3359,0.3353,0.3343,0.3335,0.3324,0.3319,0.3307,0.3299,0.3289,0.3283,0.3288,0.3264,0.3269,0.3259,0.3259,0.3253,0.3253,0.323,0.3251,0.3251,0.3251,0.3251,0,0.3399,0.3386,0.3379,0.337,0.3356,0.3351,0.3337,0.3331,0.3322,0.3311,0.3309,0.3299,0.3292,0.3281,0.3276,0.326,0.3257,0.3253,0.3251,0.3252,0.3252,0.3246,0.3246,0.325,0.325,0.325,0.325,0,0.3384,0.3378,0.3362,0.3351,0.3348,0.3338,0.3329,0.3319,0.3314,0.33,0.3297,0.3288,0.3275,0.3268,0.3251,0.3248,0.3229,0.3229,0.3233,0.3232,0.3222,0.3222,0.3193,0.3188,0.3213,0.3213,0.3213,0,0.3371,0.3362,0.335,0.3343,0.3337,0.3326,0.3318,0.3314,0.3305,0.3293,0.3285,0.3271,0.326,0.3238,0.323,0.3217,0.3216,0.3206,0.3214,0.3214,0.3214,0.3214,0.3212,0.3204,0.3204,0.3204,0.3204,0,0.335,0.3348,0.3337,0.3326,0.3317,0.3307,0.3298,0.3292,0.3286,0.3277,0.3263,0.3255,0.3238,0.3224,0.321,0.3204,0.3202,0.3202,0.3199,0.3198,0.32,0.3198,0.3228,0.3202,0.3202,0.3202,0.3203,0.3203,0.3335,0.3326,0.3316,0.3304,0.3297,0.3288,0.3279,0.3273,0.3262,0.3248,0.3246,0.3231,0.3221,0.3202,0.3195,0.3183,0.3185,0.3181,0.3179,0.3178,0.3177,0.3204,0.3181,0.3181,0.3181,0.3181,0.3181,0,0.3312,0.3306,0.3295,0.3282,0.3273,0.3274,0.3264,0.3255,0.3243,0.3233,0.3223,0.3207,0.3194,0.3185,0.3171,0.3163,0.3162,0.316,0.3159,0.3158,0.3176,0.318,0.3161,0.3161,0.3161,0.3161,0.3161,0.3161,0.3299,0.3283,0.328,0.3261,0.3255,0.3241,0.3235,0.3227,0.3219,0.3202,0.3191,0.3186,0.3177,0.3163,0.315,0.3148,0.3142,0.3139,0.3137,0.3154,0.3156,0.3158,0.3162,0.3139,0.3139,0.3119,0.3119,0.3119]}]]